Location: Altavilla Irpina
(41.0000°N, 14.7833°E)
Time: 10:23:46
(UTC+00:00)

SL-16 R/B - Pass Details

Date: 19 May 2025
Orbit: 841 x 844 km, 71.0° (Epoch: 23 June)

Event Time Altitude Azimuth Distance (km) Brightness Sun altitude
Rises 22:43:46 0° 334° (NNW) 3,410 6.4 -28.9°
Reaches altitude 10° 22:46:13 10° 332° (NNW) 2,471 5.4 -29.0°
Enters shadow 22:51:17 66° 292° (WNW) 921 2.3 -29.0°
